[[{"header":{"parameterUnit":"m.s-1","parameterCategory":1,"la1":30.2991,"la2":30.254,"lo1":-89.0895,"lo2":-89.0444,"dy":0.0017,"dx":0.0017,"nx":28,"ny":28,"refTime":"2023-10-17T09:00:00:Z","depth":0,"parameterNumber":2,"parameterNumberName":"U-component_of_WINDS"},"data":[0,0,0,0,0,0,0,0,0,0,0,0,0,0,0,0,0,0,0,0,0,0,0,0,0,0,0,0,0,0,0,0,0,0,0,0,0,0,0,0,0,0,0,0,0,0,0,0,0,0,0,0,0,0,0,0,0,0,0.9246,0.9245,0,0.9207,0.9207,0.9207,0.9209,0.9209,0.921,0.921,0.9168,0.9167,0.9165,0,0,0,0,0,0,0,0,0,0,0,0,0,0.9319,0.9318,0.9246,0.9245,0.9245,0.9208,0.9207,0.9206,0.9209,0.9209,0.921,0.9211,0.9169,0.9167,0.9165,0,0,0,0,0,0,0,0,0,0,0,0,0,0.9285,0.9317,0.9246,0.9242,0.9241,0.9208,0.9207,0.9206,0.9209,0.9209,0.921,0.9211,0.917,0.9167,0.9165,0.9133,0,0,0.9157,0.9156,0,0,0,0,0,0,0,0,0.9287,0.9282,0.9243,0.9242,0.9241,0.9214,0.9218,0.9182,0.9208,0.9221,0.921,0.9211,0.9183,0.9179,0.917,0.9131,0.9129,0.9157,0.9156,0.9155,0.9154,0,0,0,0,0,0,0,0.9289,0.9284,0.9231,0.9242,0.9241,0.9241,0.9237,0.9211,0.9197,0.922,0.922,0.9215,0.9182,0.9172,0.9169,0.9128,0.9157,0.9155,0.9153,0.9152,0.9061,0.906,0,0,0,0,0,0,0.9293,0.9286,0.9232,0.9229,0.9266,0.9239,0.9235,0.9222,0.9198,0.9195,0.9215,0.9216,0.9176,0.9172,0.9168,0.9128,0.9155,0.9152,0.9151,0.9062,0.9061,0.906,0,0,0,0,0,0,0.9294,0.9288,0.9233,0.9258,0.9251,0.9237,0.9222,0.922,0.921,0.9194,0.9191,0.9207,0.9177,0.9171,0.9142,0.9127,0.9151,0.9149,0.9063,0.9061,0.906,0.9049,0,0,0,0,0,0,0.9296,0.9288,0.9276,0.9257,0.9249,0.9208,0.9221,0.9219,0.9207,0.9207,0.9186,0.9183,0.9177,0.9145,0.9139,0.9124,0.9147,0.9064,0.9062,0.9061,0.905,0.9047,0.9044,0,0,0,0,0,0.9299,0.9274,0.9276,0.9269,0.9234,0.9207,0.9203,0.9197,0.9205,0.9193,0.9182,0.9184,0.913,0.9142,0.9135,0.9119,0.9065,0.9063,0.9061,0.9052,0.9048,0.9044,0,0,0,0,0,0,0.929,0.9271,0.9273,0.9241,0.9226,0.9208,0.9192,0.9193,0.9174,0.9175,0.9168,0.9163,0.9134,0.9124,0.9138,0.9087,0.9098,0.9095,0.9094,0.909,0.9087,0.9089,0.9145,0,0,0,0,0,0.9285,0.9266,0.925,0.9224,0.9216,0.9205,0.9194,0.9191,0.9174,0.9167,0.9154,0.9138,0.9117,0.9103,0.9083,0.905,0.9045,0.9035,0.9032,0.903,0.9026,0.9007,0.9003,0.9053,0.9053,0.9053,0,0,0.9273,0.9261,0.9249,0.9222,0.9209,0.9189,0.92,0.9178,0.9162,0.9164,0.9135,0.9125,0.9106,0.9075,0.906,0.9065,0.9012,0.9027,0.9025,0.9023,0.9005,0.9,0.8996,0.9051,0.9051,0.9052,0,0,0.9241,0.923,0.9207,0.9195,0.9177,0.917,0.9165,0.9146,0.914,0.9112,0.9113,0.9094,0.9059,0.9045,0.9033,0.8998,0.8998,0.8992,0.8975,0.8957,0.8953,0.8949,0.8936,0.8931,0.8989,0.8988,0.8988,0,0.9228,0.9198,0.9194,0.9172,0.916,0.9162,0.9138,0.9126,0.9102,0.9094,0.9101,0.9056,0.9044,0.9009,0.9,0.8991,0.8984,0.8993,0.8954,0.895,0.8947,0.8934,0.8929,0.8988,0.8988,0.8988,0.8988,0,0.9183,0.9162,0.9145,0.9123,0.9109,0.9086,0.9078,0.9065,0.9064,0.9056,0.9027,0.9013,0.899,0.8982,0.898,0.8946,0.895,0.8956,0.8967,0.8941,0.8929,0.8924,0.8987,0.8987,0.8987,0.8987,0,0,0.9142,0.9119,0.9113,0.9103,0.9084,0.9067,0.9045,0.9024,0.9012,0.8996,0.8976,0.8947,0.8952,0.8939,0.8936,0.892,0.8892,0.8927,0.8927,0.892,0.8853,0.8848,0.8842,0.8893,0.8892,0.8891,0.8855,0,0.9107,0.9067,0.9063,0.9027,0.9007,0.901,0.899,0.8976,0.8969,0.8951,0.8943,0.8922,0.8931,0.8923,0.8908,0.8898,0.8878,0.8901,0.8873,0.8872,0.8876,0.8836,0.883,0.8796,0.885,0.8849,0.8848,0,0.906,0.9043,0.9005,0.899,0.8981,0.8963,0.8944,0.8927,0.8911,0.8907,0.8893,0.8893,0.8869,0.8883,0.885,0.8866,0.8854,0.8848,0.8847,0.8842,0.8857,0.8829,0.8785,0.8779,0.8841,0.8841,0.8842,0,0.9032,0.9001,0.8974,0.8965,0.8947,0.8934,0.8926,0.8911,0.8898,0.8881,0.8873,0.8853,0.8842,0.8827,0.8821,0.8832,0.8787,0.8801,0.8782,0.8782,0.8771,0.8771,0.8723,0.8767,0.8767,0.8767,0.8767,0,0.8992,0.8968,0.8961,0.8944,0.8918,0.8915,0.8889,0.8881,0.8868,0.8849,0.8851,0.8833,0.8828,0.8809,0.8804,0.8777,0.8772,0.8767,0.8766,0.8766,0.8767,0.8757,0.8759,0.8766,0.8766,0.8766,0.8766,0,0.8955,0.895,0.8921,0.8906,0.8902,0.8883,0.887,0.8854,0.8848,0.8825,0.8819,0.8809,0.8788,0.8781,0.8754,0.8751,0.8719,0.8721,0.8724,0.8723,0.8705,0.8706,0.8647,0.8638,0.869,0.8689,0.8689,0,0.8929,0.8911,0.8895,0.8883,0.8875,0.8855,0.8843,0.884,0.8827,0.8808,0.8794,0.8773,0.8756,0.8721,0.8711,0.8691,0.8691,0.8672,0.8688,0.8689,0.8689,0.8689,0.8687,0.8668,0.8667,0.8667,0.8667,0,0.8883,0.8881,0.8864,0.8846,0.8831,0.8816,0.8802,0.8792,0.8787,0.8772,0.875,0.8737,0.8711,0.869,0.867,0.866,0.8662,0.8662,0.8657,0.8655,0.8658,0.8655,0.8714,0.8663,0.8663,0.8664,0.8664,0.8664,0.885,0.8834,0.882,0.88,0.879,0.8777,0.8761,0.8754,0.8736,0.8714,0.8714,0.869,0.8676,0.8649,0.8639,0.862,0.8626,0.8618,0.8615,0.8613,0.8611,0.8663,0.8617,0.8617,0.8617,0.8617,0.8617,0,0.8802,0.8794,0.8776,0.8757,0.8741,0.8747,0.8731,0.8718,0.8697,0.8684,0.8667,0.8643,0.8622,0.8612,0.8592,0.8579,0.8579,0.8573,0.8573,0.8571,0.8608,0.8614,0.8573,0.8573,0.8573,0.8573,0.8573,0.8573,0.8775,0.8748,0.8745,0.8713,0.8705,0.8683,0.8673,0.8661,0.8651,0.8623,0.8607,0.8601,0.8588,0.8568,0.8549,0.8547,0.8538,0.8532,0.8529,0.8564,0.8568,0.8572,0.8578,0.853,0.853,0.8494,0.8493,0.8493]},{"header":{"parameterUnit":"m.s-1","parameterCategory":1,"la1":30.2991,"la2":30.254,"lo1":-89.0895,"lo2":-89.0444,"dy":0.0017,"dx":0.0017,"nx":28,"ny":28,"refTime":"2023-10-17T09:00:00:Z","depth":0,"parameterNumber":3,"parameterNumberName":"V-component_of_WINDS"},"data":[0,0,0,0,0,0,0,0,0,0,0,0,0,0,0,0,0,0,0,0,0,0,0,0,0,0,0,0,0,0,0,0,0,0,0,0,0,0,0,0,0,0,0,0,0,0,0,0,0,0,0,0,0,0,0,0,0,0,-4.1881,-4.1882,0,-4.1974,-4.1975,-4.1976,-4.1915,-4.1912,-4.1909,-4.1906,-4.1998,-4.2003,-4.2008,0,0,0,0,0,0,0,0,0,0,0,0,0,-4.1645,-4.165,-4.188,-4.1882,-4.1883,-4.1974,-4.1975,-4.1976,-4.1915,-4.1912,-4.1908,-4.1905,-4.1996,-4.2002,-4.2008,0,0,0,0,0,0,0,0,0,0,0,0,0,-4.1744,-4.1651,-4.188,-4.1863,-4.1863,-4.1973,-4.1975,-4.1977,-4.1916,-4.1912,-4.1907,-4.1903,-4.1994,-4.2002,-4.2009,-4.214,0,0,-4.2032,-4.2036,0,0,0,0,0,0,0,0,-4.1738,-4.1752,-4.1865,-4.1865,-4.1864,-4.1928,-4.1925,-4.2031,-4.1917,-4.1896,-4.1906,-4.1901,-4.1978,-4.1987,-4.2013,-4.2145,-4.2148,-4.2033,-4.2038,-4.2041,-4.2043,0,0,0,0,0,0,0,-4.1731,-4.1748,-4.1917,-4.1866,-4.1866,-4.185,-4.1859,-4.1945,-4.1959,-4.1897,-4.1893,-4.1905,-4.1977,-4.2006,-4.2015,-4.215,-4.2033,-4.204,-4.2044,-4.2047,-4.2392,-4.2396,0,0,0,0,0,0,-4.1727,-4.1743,-4.1914,-4.192,-4.179,-4.1857,-4.1868,-4.1912,-4.1958,-4.1961,-4.1909,-4.1902,-4.1995,-4.2006,-4.2018,-4.2174,-4.2041,-4.2048,-4.2052,-4.2387,-4.2393,-4.2398,0,0,0,0,0,0,-4.1722,-4.1742,-4.1911,-4.183,-4.185,-4.1866,-4.1916,-4.1916,-4.1945,-4.1967,-4.1968,-4.1936,-4.1992,-4.2007,-4.211,-4.2176,-4.2051,-4.2058,-4.2382,-4.2389,-4.2396,-4.2487,0,0,0,0,0,0,-4.1715,-4.1741,-4.1792,-4.1832,-4.1855,-4.2003,-4.192,-4.1921,-4.1959,-4.1951,-4.1993,-4.1996,-4.199,-4.2099,-4.2118,-4.2184,-4.2064,-4.2376,-4.2385,-4.2393,-4.2478,-4.2496,-4.2512,0,0,0,0,0,-4.1707,-4.1814,-4.1795,-4.1816,-4.192,-4.2007,-4.202,-4.2013,-4.1964,-4.2015,-4.2029,-4.1994,-4.2166,-4.211,-4.2131,-4.22,-4.2372,-4.2383,-4.2393,-4.2471,-4.2493,-4.2511,0,0,0,0,0,0,-4.178,-4.1819,-4.1798,-4.1921,-4.1962,-4.1997,-4.206,-4.2036,-4.209,-4.208,-4.2067,-4.2077,-4.2185,-4.2203,-4.214,-4.2329,-4.2261,-4.2276,-4.2314,-4.2335,-4.2351,-4.2344,-4.207,0,0,0,0,0,-4.1811,-4.188,-4.1909,-4.2015,-4.2036,-4.2045,-4.2083,-4.2074,-4.2114,-4.213,-4.2152,-4.2191,-4.2253,-4.2295,-4.2354,-4.2481,-4.2488,-4.2538,-4.2555,-4.2569,-4.2582,-4.2649,-4.2671,-4.2432,-4.2432,-4.2432,0,0,-4.1874,-4.1904,-4.1948,-4.203,-4.206,-4.2131,-4.206,-4.2138,-4.2189,-4.2142,-4.2241,-4.2258,-4.23,-4.2416,-4.2468,-4.2434,-4.2649,-4.2582,-4.2593,-4.2598,-4.2662,-4.2685,-4.2705,-4.2439,-4.2438,-4.2437,0,0,-4.2026,-4.2056,-4.2147,-4.2179,-4.2225,-4.2231,-4.2252,-4.2291,-4.2301,-4.24,-4.2366,-4.2426,-4.2535,-4.2567,-4.2597,-4.2761,-4.2731,-4.278,-4.2867,-4.2933,-4.2952,-4.2968,-4.3026,-4.3047,-4.2793,-4.2793,-4.2793,0,-4.2099,-4.2205,-4.2196,-4.2277,-4.2314,-4.2275,-4.2366,-4.2397,-4.246,-4.2485,-4.2447,-4.2582,-4.2608,-4.273,-4.277,-4.2796,-4.2819,-4.2775,-4.295,-4.2967,-4.2982,-4.3037,-4.3058,-4.2799,-4.2798,-4.2797,-4.2797,0,-4.2292,-4.2366,-4.2434,-4.2497,-4.2541,-4.2627,-4.2629,-4.2675,-4.2661,-4.267,-4.2771,-4.2801,-4.2865,-4.2893,-4.288,-4.3013,-4.2991,-4.2952,-4.2883,-4.3011,-4.3062,-4.3083,-4.2807,-4.2805,-4.2803,-4.2802,0,0,-4.2493,-4.255,-4.2575,-4.2603,-4.2651,-4.2708,-4.279,-4.2854,-4.2893,-4.2938,-4.3006,-4.3098,-4.3063,-4.3097,-4.3088,-4.3145,-4.3272,-4.3099,-4.31,-4.313,-4.3419,-4.3448,-4.3472,-4.3252,-4.3256,-4.326,-4.3415,0,-4.2647,-4.2794,-4.2788,-4.2924,-4.2991,-4.2955,-4.3027,-4.3064,-4.3074,-4.3132,-4.3142,-4.3208,-4.3156,-4.3176,-4.3232,-4.3245,-4.333,-4.3234,-4.3315,-4.3318,-4.3305,-4.3499,-4.353,-4.3675,-4.3435,-4.3438,-4.3441,0,-4.2847,-4.2899,-4.3043,-4.3081,-4.3109,-4.3174,-4.3231,-4.3287,-4.3327,-4.3331,-4.3369,-4.335,-4.3432,-4.3362,-4.3475,-4.3409,-4.3442,-4.3453,-4.3459,-4.3465,-4.3387,-4.3511,-4.3721,-4.3743,-4.3472,-4.347,-4.3467,0,-4.2978,-4.3085,-4.3184,-4.3209,-4.3256,-4.3302,-4.3323,-4.336,-4.3398,-4.3448,-4.3472,-4.353,-4.3562,-4.3607,-4.3604,-4.3553,-4.3718,-4.3647,-4.3721,-4.3722,-4.3757,-4.3755,-4.3976,-4.3779,-4.3779,-4.3779,-4.3778,0,-4.3151,-4.324,-4.3244,-4.3305,-4.3403,-4.3394,-4.3491,-4.3507,-4.3539,-4.3602,-4.3574,-4.3632,-4.3624,-4.3683,-4.3681,-4.3774,-4.3788,-4.3792,-4.379,-4.3795,-4.3794,-4.3816,-4.3805,-4.3784,-4.3783,-4.3782,-4.3781,0,-4.3314,-4.3321,-4.3426,-4.3462,-4.3473,-4.3544,-4.3573,-4.363,-4.3638,-4.3717,-4.3735,-4.3747,-4.3814,-4.3815,-4.3892,-4.3891,-4.4004,-4.3991,-4.3991,-4.3989,-4.4063,-4.4056,-4.4305,-4.4337,-4.412,-4.4122,-4.4123,0,-4.3424,-4.3492,-4.3535,-4.3576,-4.36,-4.3665,-4.3705,-4.3698,-4.374,-4.3791,-4.3841,-4.3907,-4.3958,-4.4068,-4.4082,-4.414,-4.4128,-4.4211,-4.4137,-4.4139,-4.4129,-4.4125,-4.4131,-4.4226,-4.4228,-4.423,-4.4232,0,-4.3618,-4.3618,-4.3676,-4.3736,-4.3784,-4.383,-4.3873,-4.3907,-4.3906,-4.3954,-4.4023,-4.4064,-4.4142,-4.4207,-4.4264,-4.4283,-4.4258,-4.4255,-4.4276,-4.4281,-4.4278,-4.428,-4.4031,-4.425,-4.4248,-4.4247,-4.4246,-4.4245,-4.3758,-4.3816,-4.3856,-4.3921,-4.3953,-4.3994,-4.4049,-4.4064,-4.4122,-4.4187,-4.4179,-4.4256,-4.4293,-4.4366,-4.4391,-4.445,-4.4421,-4.4451,-4.4458,-4.4465,-4.4473,-4.4269,-4.446,-4.446,-4.4459,-4.4459,-4.4459,0,-4.395,-4.3974,-4.4034,-4.4096,-4.4147,-4.4119,-4.4165,-4.4209,-4.4278,-4.4315,-4.4367,-4.4446,-4.4508,-4.4528,-4.4588,-4.4631,-4.4621,-4.4647,-4.4644,-4.4648,-4.4496,-4.4472,-4.4655,-4.4654,-4.4654,-4.4654,-4.4654,-4.4654,-4.4056,-4.4153,-4.4157,-4.4269,-4.4291,-4.4368,-4.4396,-4.4433,-4.4462,-4.4553,-4.4605,-4.4617,-4.4647,-4.4709,-4.4764,-4.4768,-4.4791,-4.4823,-4.4822,-4.4679,-4.4659,-4.464,-4.4618,-4.4828,-4.4828,-4.4969,-4.497,-4.4971]}]]